Date String (YYYY-MM-DD hh:mm:ss) UTC,Instrument flags,absolute air pressure of the measurement (hPa),sample flow rate (lpm),inlet stack bypass flow (lpm),air temperature of the measurement (°C),ambient temperature measured by the external sensor (°C),aerosol sample conditioner tube jacket temperature (°C),OPC LED temperature (°C),internal box temperature (°C),relative humidity of the measurement (%),span deviation,mass concentration of particles derived from Lorenz-Mie calculation of OPC scattering (μg/m³),mass concentration of particles derived from Lorenz-Mie calculation of OPC scattering (μg/m³),mass concentration of particles derived from Lorenz-Mie calculation of OPC scattering (μg/m³)
DateTimeUTC,F1_M11,P_M11,Q1_M11,Q2_M11,T1_M11,T2_M11,T3_M11,T4_M11,T5_M11,U1_M11,ZSPAN_M11,X0_M11,X2_M11,X1_M11
2023-10-12 09:00:00,SystemResetWarning,0814.3,5.00,000.00,029.0,027.4,000.0,037.5,030.6,21.4,0000.0,0003.57,0002.18,0001.74
2023-10-12 09:01:00,SystemResetWarning,0814.4,5.00,000.00,029.0,027.4,000.0,037.5,030.6,21.4,0000.0,0003.55,0002.14,0001.70
2023-10-12 09:02:00,SystemResetWarning,0814.3,5.00,000.00,029.0,027.4,000.0,037.5,030.6,21.3,0000.0,0003.71,0002.16,0001.68
2023-10-12 09:03:00,SystemResetWarning,0814.2,5.00,000.00,029.0,027.5,000.0,037.5,030.6,21.4,0000.0,0003.49,0002.14,0001.65
2023-10-12 09:04:00,SystemResetWarning,0814.2,5.00,000.00,029.0,027.5,000.0,037.5,030.6,21.4,0000.0,0004.10,0002.09,0001.63
2023-10-12 09:05:00,SystemResetWarning,0814.1,5.00,000.00,029.0,027.5,000.0,037.5,030.6,21.4,0000.0,0004.24,0002.09,0001.60
2023-10-12 09:06:00,SystemResetWarning,0814.1,5.01,000.00,029.0,027.4,000.0,037.5,030.5,21.5,0000.0,0004.19,0002.07,0001.58
2023-10-12 09:07:00,SystemResetWarning,0814.1,5.00,000.00,029.0,027.4,000.0,037.5,030.5,21.6,0000.0,0004.13,0002.04,0001.56
2023-10-12 09:08:00,SystemResetWarning,0814.0,5.01,000.00,029.0,027.4,000.0,037.5,030.5,21.6,0000.0,0004.09,0002.01,0001.55
2023-10-12 09:09:00,SystemResetWarning,0813.9,4.99,000.00,029.0,027.4,000.0,037.5,030.5,21.7,0000.0,0004.02,0002.00,0001.56
2023-10-12 09:10:00,SystemResetWarning,0813.9,5.00,000.00,029.0,027.4,000.0,037.5,030.5,21.7,0000.0,0003.95,0001.99,0001.57
2023-10-12 09:11:00,SystemResetWarning,0813.9,5.00,000.00,029.0,027.4,000.0,037.5,030.5,21.7,0000.0,0003.96,0002.01,0001.57
2023-10-12 09:12:00,SystemResetWarning,0813.9,5.00,000.00,028.9,027.4,000.0,037.5,030.5,21.7,0000.0,0004.01,0002.03,0001.56
2023-10-12 09:13:00,SystemResetWarning,0813.9,5.00,000.00,028.9,027.4,000.0,037.5,030.5,21.7,0000.0,0003.90,0001.98,0001.53
2023-10-12 09:14:00,SystemResetWarning,0813.9,5.00,000.00,028.9,027.4,000.0,037.5,030.5,21.6,0000.0,0003.88,0001.97,0001.52
2023-10-12 09:15:00,SystemResetWarning,0813.9,5.00,000.00,028.9,027.4,000.0,037.5,030.5,21.6,0000.0,0003.12,0001.95,0001.51
2023-10-12 09:16:00,SystemResetWarning,0814.0,5.00,000.00,028.9,027.4,000.0,037.4,030.5,21.5,0000.0,0002.75,0001.89,0001.48
2023-10-12 09:17:00,SystemResetWarning,0813.9,5.00,000.00,028.9,027.4,000.0,037.5,030.5,21.5,0000.0,0002.77,0001.87,0001.47
2023-10-12 09:18:00,SystemResetWarning,0814.0,5.01,000.00,028.9,027.4,000.0,037.4,030.5,21.6,0000.0,0003.26,0001.89,0001.46
2023-10-12 09:19:00,SystemResetWarning,0813.9,5.00,000.00,028.9,027.3,000.0,037.4,030.5,21.5,0000.0,0003.55,0001.89,0001.44
2023-10-12 09:20:00,SystemResetWarning,0813.9,5.00,000.00,028.9,027.3,000.0,037.4,030.4,21.5,0000.0,0003.60,0001.86,0001.40
2023-10-12 09:21:00,SystemResetWarning,0813.9,5.00,000.00,028.9,027.3,000.0,037.4,030.4,21.6,0000.0,0003.54,0001.80,0001.35
2023-10-12 09:22:00,SystemResetWarning,0813.9,4.99,000.00,028.9,027.3,000.0,037.4,030.4,21.6,0000.0,0003.39,0001.71,0001.31
2023-10-12 09:23:00,SystemResetWarning,0813.9,5.00,000.00,028.9,027.3,000.0,037.4,030.4,21.7,0000.0,0003.27,0001.65,0001.30
2023-10-12 09:24:00,SystemResetWarning,0813.9,5.00,000.00,028.9,027.3,000.0,037.4,030.4,21.7,0000.0,0003.25,0001.67,0001.31
2023-10-12 09:25:00,SystemResetWarning,0813.9,5.01,000.00,028.8,027.2,000.0,037.4,030.3,21.7,0000.0,0003.19,0001.67,0001.33
2023-10-12 09:26:00,SystemResetWarning,0813.9,5.01,000.00,028.8,027.2,000.0,037.4,030.3,21.8,0000.0,0003.25,0001.70,0001.37
2023-10-12 09:27:00,SystemResetWarning,0813.9,5.00,000.00,028.8,027.2,000.0,037.4,030.3,21.8,0000.0,0003.38,0001.75,0001.41
2023-10-12 09:28:00,SystemResetWarning,0813.9,4.99,000.00,028.8,027.2,000.0,037.4,030.3,21.8,0000.0,0003.36,0001.77,0001.44
2023-10-12 09:29:00,SystemResetWarning,0813.9,4.99,000.00,028.8,027.1,000.0,037.4,030.3,21.8,0000.0,0003.02,0001.77,0001.46
2023-10-12 09:30:00,SystemResetWarning,0813.9,5.00,000.00,028.7,027.1,000.0,037.3,030.2,21.8,0000.0,0002.68,0001.75,0001.47
2023-10-12 09:31:00,SystemResetWarning,0813.9,5.00,000.00,028.7,027.1,000.0,037.3,030.2,21.7,0000.0,0002.73,0001.76,0001.47
2023-10-12 09:32:00,SystemResetWarning,0813.9,5.01,000.00,028.7,027.0,000.0,037.3,030.2,21.7,0000.0,0002.86,0001.79,0001.47
2023-10-12 09:33:00,SystemResetWarning,0813.9,5.01,000.00,028.7,027.0,000.0,037.3,030.2,21.7,0000.0,0002.87,0001.79,0001.47
2023-10-12 09:34:00,SystemResetWarning,0813.9,5.01,000.00,028.7,027.0,000.0,037.3,030.2,21.7,0000.0,0002.80,0001.77,0001.47
2023-10-12 09:35:00,SystemResetWarning,0813.9,5.00,000.00,028.6,027.0,000.0,037.3,030.1,21.7,0000.0,0002.80,0001.76,0001.45
2023-10-12 09:36:00,SystemResetWarning,0813.9,5.00,000.00,028.6,027.0,000.0,037.3,030.1,21.7,0000.0,0002.79,0001.72,0001.43
2023-10-12 09:37:00,SystemResetWarning,0813.9,5.00,000.00,028.6,027.0,000.0,037.3,030.1,21.7,0000.0,0002.77,0001.70,0001.39
2023-10-12 09:38:00,SystemResetWarning,0813.8,4.99,000.00,028.6,026.9,000.0,037.2,030.1,21.6,0000.0,0002.62,0001.65,0001.35
2023-10-12 09:39:00,SystemResetWarning,0813.8,4.99,000.00,028.6,026.9,000.0,037.2,030.1,21.6,0000.0,0002.57,0001.62,0001.31
2023-10-12 09:40:00,SystemResetWarning,0813.8,5.01,000.00,028.6,026.9,000.0,037.2,030.0,21.7,0000.0,0002.47,0001.59,0001.29
2023-10-12 09:41:00,SystemResetWarning,0813.8,5.01,000.00,028.5,026.9,000.0,037.2,030.0,21.7,0000.0,0002.54,0001.61,0001.27
2023-10-12 09:42:00,SystemResetWarning,0813.9,4.99,000.00,028.5,026.9,000.0,037.2,030.0,21.7,0000.0,0002.64,0001.60,0001.28
2023-10-12 09:43:00,SystemResetWarning,0813.9,5.00,000.00,028.5,026.9,000.0,037.2,030.0,21.7,0000.0,0003.07,0001.59,0001.28
2023-10-12 09:44:00,SystemResetWarning,0814.0,5.00,000.00,028.5,026.9,000.0,037.2,030.0,21.7,0000.0,0003.11,0001.60,0001.29
2023-10-12 09:45:00,SystemResetWarning,0813.9,4.99,000.00,028.5,026.8,000.0,037.2,029.9,21.7,0000.0,0003.15,0001.63,0001.31
2023-10-12 09:46:00,SystemResetWarning,0813.9,5.00,000.00,028.5,026.8,000.0,037.1,029.9,21.6,0000.0,0003.20,0001.67,0001.34
2023-10-12 09:47:00,SystemResetWarning,0813.9,5.01,000.00,028.4,026.8,000.0,037.1,029.9,21.5,0000.0,0003.13,0001.68,0001.36
2023-10-12 09:48:00,SystemResetWarning,0813.9,5.01,000.00,028.4,026.7,000.0,037.1,029.9,21.4,0000.0,0003.17,0001.71,0001.37
2023-10-12 09:49:00,SystemResetWarning,0813.9,5.01,000.00,028.4,026.7,000.0,037.1,029.9,21.2,0000.0,0003.28,0001.76,0001.39
2023-10-12 09:50:00,SystemResetWarning,0813.8,5.00,000.00,028.4,026.7,000.0,037.0,029.8,21.1,0000.0,0003.37,0001.79,0001.41
2023-10-12 09:51:00,SystemResetWarning,0813.7,4.99,000.00,028.4,026.6,000.0,037.0,029.8,21.1,0000.0,0003.43,0001.83,0001.43
2023-10-12 09:52:00,SystemResetWarning,0813.7,4.99,000.00,028.3,026.7,000.0,037.0,029.8,21.0,0000.0,0003.36,0001.81,0001.45
2023-10-12 09:53:00,SystemResetWarning,0813.7,5.00,000.00,028.3,026.7,000.0,037.0,029.8,21.0,0000.0,0003.43,0001.86,0001.47
2023-10-12 09:54:00,SystemResetWarning,0813.7,5.00,000.00,028.3,026.7,000.0,037.0,029.8,20.9,0000.0,0002.82,0001.87,0001.48
2023-10-12 09:55:00,SystemResetWarning,0813.7,5.01,000.00,028.3,026.7,000.0,037.0,029.8,20.8,0000.0,0003.11,0001.91,0001.50
2023-10-12 09:56:00,SystemResetWarning,0813.8,5.00,000.00,028.3,026.7,000.0,036.9,029.8,20.8,0000.0,0003.21,0001.95,0001.51
2023-10-12 09:57:00,SystemResetWarning,0813.8,4.99,000.00,028.3,026.7,000.0,036.9,029.8,20.7,0000.0,0003.64,0001.93,0001.52
2023-10-12 09:58:00,SystemResetWarning,0813.8,5.00,000.00,028.3,026.7,000.0,036.9,029.8,20.7,0000.0,0004.07,0001.97,0001.53
2023-10-12 09:59:00,SystemResetWarning,0813.8,5.00,000.00,028.3,026.7,000.0,036.9,029.8,20.7,0000.0,0004.07,0001.95,0001.54
